Weather in Sodertalje

Sweden     59°12′05″N   17°35′58″E
temp.,
°C
wind,
m/s
gust,
m/s
humid.,
%
clouds,
%
prec.,
mm/h
press.,
hPa
HPBL,
m
26 january, tue
tue2601:00−4nw369287 0.1 1001226
04:00−5nw369387 0.0 1003217
07:00−5nw469184 0.1 1003218
10:00−4nw588782 0.0 1004306
13:00−3nnw598491 0.1 1005401
16:00−4nnw5986100 0.0 1005382
19:00−5nnw5987100 0.0 1005346
22:00−5nnw5988100 0.0 1005282
27 january, wed
wed2701:00−6nw599090 0.0 1006258
04:00−6nw588994 0.0 1005277
07:00−7nw479085 0.0 1005192
10:00−7nw468721 0.0 1006184
13:00−5nw358215 0.0 1006186
16:00−7nnw22880 0.0 100638
19:00−7nnw12920 0.0 100621
22:00−7nne229422 0.0 100642
28 january, thu
thu2801:00−7ne239362 0.0 100698
04:00−6ne3693100 0.1 1005225
07:00−5ne4894100 1.2 1005341
10:00−5nne61094100 2.4 1005456
13:00−4ne6993100 3.4 1004489
16:00−3nne5996100 1.8 1004392
19:00−2ne5997100 4.8 1004360
22:00−2ne61097100 3.0 1004460
29 january, fri
fri2901:00−3ne5996100 5.8 1004501
04:00−4nne4796100 2.3 1003399
07:00−5n5895100 3.1 1003367
10:00−6n61094100 0.6 1004449
13:00−8nnw589199 0.8 1004352
16:00−10nnw4892100 0.0 1004246
19:00−13nnw479392 0.0 1004177
22:00−14nw47928 0.0 1004165
30 january, sat
sat3001:00−15nw47904 0.0 1003155
04:00−16nw47890 0.0 1002174
07:00−16nw47900 0.0 1002153
10:00−15nw479010 0.0 1002196
13:00−13nw479014 0.0 1002244
16:00−14nw489341 0.0 1002203
19:00−15nw479334 0.0 1002182
22:00−15nw479319 0.0 1001186